Location: *
(47.8307°S, 178.3954°E)
Time: 06:49:47
(UTC+00:00)

Meteor 1-24 Rocket - Pass Details

Date: 12 August 2024
Orbit: 790 x 925 km, 81.3° (Epoch: 18 September)

Event Time Altitude Azimuth Distance (km) Brightness Sun altitude
Exits shadow 16:58:57 44° 240° (WSW) 1,224 4.1 -22.9°
Drops below altitude 10° 17:04:04 10° 179° (S) 2,542 6.2 -22.1°
Sets 17:06:36 0° 173° (S) 3,464 7.0 -21.6°
